Weather in Serebryanyye Klyuchi

Russia / Tula Oblast     54°14′59″N   37°55′18″E
temp.,
°C
wind,
m/s
gust,
m/s
humid.,
%
clouds,
%
prec.,
mm/h
press.,
hPa
HPBL,
m
13 may, thu
thu1300:00+6se349732 0.0 101975
03:00+6e369697 0.0 1019125
06:00+7e511946 0.0 1019296
09:00+12ese61180100 0.0 1018617
12:00+16se81268100 0.1 10171312
15:00+12ese41092100 3.6 1016417
18:00+14s5108379 1.0 10151048
21:00+11sse2290100 1.7 101618
14 may, fri
fri1400:00+9sse33927 0.0 101631
03:00+9sse339195 0.0 101629
06:00+10se3591100 0.0 1017120
09:00+16se4683100 0.1 1016416
12:00+19se697391 0.6 1015899
15:00+21se7116865 0.8 10131511
18:00+20se71476100 1.3 1011901
21:00+15se359182 1.9 101179
15 may, sat
sat1500:00+14s41394100 0.9 1011323
03:00+15se499451 3.8 1009198
06:00+15se4109685 1.1 1010351
09:00+19ssw578399 1.3 1009551
12:00+21ssw686697 0.1 10111375
15:00+21sw79580 0.2 10111740
18:00+19sw58690 0.1 1011672
21:00+14ssw33875 0.1 101236
16 may, sun
sun1600:00+13s35937 0.0 101386
03:00+12ssw499435 0.0 1013176
06:00+13ssw499331 0.0 1014295
09:00+16sw586969 0.0 1015699
12:00+19sw46615 0.0 10151207
15:00+21sw45560 0.0 10151436
18:00+20sw23652 0.0 10141072
21:00+15n1178100 0.0 101511
17 may, mon
mon1700:00+14ene338491 0.0 101533
03:00+13ene478749 0.0 1015106
06:00+14ene4118876 0.0 1015264
09:00+19e697792 0.0 1014464
12:00+23ese796611 0.0 1013852
15:00+25se61158100 0.0 10121244
18:00+22ese6126696 0.0 1011477
21:00+17ese514805 0.0 1011279